Location: Newark
(44.9861°N, 0.2536°E)
Time: 22:21:00
(UTC+00:00)

HuskySat-1 - Pass Details

Date: 14 July 2020
Orbit: 457 x 471 km, 51.6° (Epoch: 10 August)

Event Time Altitude Azimuth Distance (km) Brightness Sun altitude
Exits shadow 01:17:29 11° 288° (WNW) 1,547 ? -21.4°
Maximum altitude 01:20:34 30° 350° (N) 846 ? -21.2°
Drops below altitude 10° 01:23:50 10° 54° (NE) 1,609 ? -21.0°
Sets 01:26:09 0° 65° (ENE) 2,482 ? -20.9°
